�N����,����,�~����,�C��,���x,�C��,����,���ϕ���,�ő�u�ԕ���,�ő厞����,���˗�,�I�_���x,�n�����x,�ő啗���N��,DTYPE
"22/08/12","00:10",0.0,26.7,84.7,1002.4,326.2,0.5,0.9,311.3,0.00,23.9,26.8,"00:09:44",1
"22/08/12","00:20",0.0,26.6,85.9,1002.6,347.9,0.8,1.6,347.3,0.00,24.1,26.9,"00:17:36",1
"22/08/12","00:30",0.0,26.5,86.9,1002.9,326.8,0.6,1.2,343.5,0.00,24.2,26.7,"00:28:40",1
"22/08/12","00:40",0.0,26.6,87.6,1002.4,344.1,1.0,1.6,336.3,0.00,24.4,26.7,"00:35:20",1
"22/08/12","00:50",0.0,26.5,88.1,1002.6,346.4,0.6,1.2,351.0,0.00,24.4,26.8,"00:43:04",1
"22/08/12","01:00",0.0,26.5,88.5,1002.6,334.7,0.3,1.0,358.9,0.00,24.5,26.8,"00:52:32",1
"22/08/12","01:10",0.0,26.5,89.0,1002.6,325.5,0.7,1.4,328.3,0.00,24.6,26.9,"01:03:28",1
"22/08/12","01:20",0.0,26.5,89.3,1002.4,311.2,0.7,1.2,314.9,0.00,24.6,26.7,"01:19:36",1
"22/08/12","01:30",0.0,26.7,89.7,1002.4,336.5,1.1,1.6,346.0,0.00,24.9,26.6,"01:26:56",1
"22/08/12","01:40",0.0,26.6,89.8,1002.4,343.7,1.0,1.6,357.2,0.00,24.8,26.7,"01:31:20",1
"22/08/12","01:50",0.0,26.4,90.0,1002.2,288.2,0.6,1.7,341.8,0.00,24.7,26.9,"01:41:36",1
"22/08/12","02:00",0.0,26.1,90.3,1002.2,317.7,1.0,1.7,318.0,0.00,24.4,26.7,"01:54:32",1
"22/08/12","02:10",0.0,26.0,90.5,1002.4,308.0,0.7,1.2,350.6,0.00,24.4,26.5,"02:02:32",1
"22/08/12","02:20",0.0,25.9,90.7,1002.2,320.2,0.8,1.1,341.8,0.00,24.3,26.6,"02:12:40",1
"22/08/12","02:30",0.0,25.9,90.8,1002.2,305.4,0.8,1.1,309.4,0.00,24.3,26.7,"02:28:48",1
"22/08/12","02:40",0.0,25.9,91.0,1002.2,319.3,0.8,1.2,328.8,0.00,24.4,26.7,"02:34:08",1
"22/08/12","02:50",0.0,25.9,91.2,1002.2,314.0,0.7,1.0,317.6,0.00,24.4,26.6,"02:48:56",1
"22/08/12","03:00",0.0,26.1,91.3,1002.2,341.7,1.0,1.2,338.2,0.00,24.6,26.7,"02:52:40",1
"22/08/12","03:10",0.0,26.0,91.4,1002.2,295.8,0.6,1.2,338.1,0.00,24.5,26.5,"03:02:32",1
"22/08/12","03:20",0.0,25.9,91.6,1002.6,297.8,0.7,1.4,338.5,0.00,24.5,26.5,"03:19:20",1
"22/08/12","03:30",0.0,25.8,91.7,1001.9,304.2,0.6,1.2,327.7,0.00,24.4,26.5,"03:20:56",1
"22/08/12","03:40",0.0,25.8,91.8,1002.4,323.0,0.8,1.1,333.1,0.00,24.4,26.6,"03:36:00",1
"22/08/12","03:50",0.0,25.7,91.9,1002.2,303.1,0.8,1.6,327.3,0.00,24.3,26.7,"03:48:16",1
"22/08/12","04:00",0.0,25.7,92.1,1001.9,302.0,1.1,1.8,341.5,0.00,24.4,26.5,"03:52:16",1
"22/08/12","04:10",0.0,25.7,92.2,1002.4,306.3,1.0,1.4,329.3,0.00,24.4,26.3,"04:03:52",1
"22/08/12","04:20",0.0,25.7,92.3,1002.4,285.4,0.8,1.3,326.0,0.00,24.4,26.5,"04:18:24",1
"22/08/12","04:30",0.0,25.7,92.3,1002.2,307.7,0.8,2.0,328.1,0.00,24.4,26.5,"04:22:56",1
"22/08/12","04:40",0.0,25.7,92.4,1002.6,305.6,0.7,1.2,317.0,0.00,24.4,26.5,"04:34:08",1
"22/08/12","04:50",0.0,25.7,92.4,1002.6,312.0,0.7,1.2,330.3,0.00,24.4,26.4,"04:40:40",1
"22/08/12","05:00",0.0,25.6,92.5,1002.6,275.2,0.5,0.9,271.8,0.00,24.3,26.4,"04:58:00",1
"22/08/12","05:10",0.0,25.6,92.6,1002.2,311.0,1.0,1.4,325.6,0.00,24.4,26.3,"05:04:08",1
"22/08/12","05:20",0.0,25.6,92.6,1002.4,315.9,0.5,1.0,336.9,0.00,24.4,26.5,"05:13:36",1
"22/08/12","05:30",0.0,25.5,92.7,1002.9,309.1,0.8,1.3,312.2,0.00,24.3,26.4,"05:24:24",1
"22/08/12","05:40",0.0,25.4,92.8,1002.4,313.0,0.8,1.2,312.6,0.00,24.2,26.2,"05:38:40",1
"22/08/12","05:50",0.0,25.5,92.9,1002.6,304.6,1.0,1.6,332.7,0.00,24.3,26.2,"05:48:16",1
"22/08/12","06:00",0.0,25.6,93.0,1002.9,305.0,1.0,1.4,328.9,0.00,24.4,26.4,"05:58:56",1
"22/08/12","06:10",0.0,25.7,93.0,1002.9,292.0,0.7,1.4,324.9,0.00,24.5,26.3,"06:00:32",1
"22/08/12","06:20",0.0,25.8,93.0,1002.6,307.7,0.8,1.1,326.7,0.00,24.6,26.2,"06:16:24",1
"22/08/12","06:30",0.0,26.0,93.1,1002.6,313.8,0.8,1.2,338.0,0.00,24.8,26.2,"06:21:04",1
"22/08/12","06:40",0.0,26.0,93.0,1002.4,303.1,0.8,1.2,303.8,0.00,24.8,26.1,"06:33:52",1
"22/08/12","06:50",0.0,26.1,93.1,1002.6,300.0,0.6,0.9,272.3,0.01,24.9,26.3,"06:42:16",1
"22/08/12","07:00",0.0,26.2,93.2,1002.4,318.3,1.1,1.4,327.1,0.01,25.1,26.2,"06:54:48",1
"22/08/12","07:10",0.0,26.5,93.1,1002.4,308.6,0.8,1.2,314.7,0.01,25.3,26.2,"07:00:24",1
"22/08/12","07:20",0.0,26.3,93.2,1002.9,311.4,1.2,1.9,325.7,0.03,25.2,26.2,"07:14:24",1
"22/08/12","07:30",0.0,26.4,93.1,1002.6,318.9,1.2,1.9,327.4,0.04,25.2,26.3,"07:28:08",1
"22/08/12","07:40",0.0,26.8,93.1,1002.4,319.1,1.1,2.1,329.5,0.03,25.6,26.2,"07:30:56",1
"22/08/12","07:50",0.0,27.1,92.9,1002.9,335.3,1.0,1.3,335.8,0.06,25.9,26.2,"07:46:00",1
"22/08/12","08:00",0.0,27.3,92.6,1002.6,336.2,1.0,1.7,340.5,0.07,26.0,26.3,"07:57:28",1
"22/08/12","08:10",0.0,27.7,92.2,1002.6,352.9,0.8,1.8,327.9,0.12,26.4,26.2,"08:01:12",1
"22/08/12","08:20",0.0,27.9,91.2,1002.9,4.5,0.8,1.7,358.3,0.14,26.4,26.3,"08:16:08",1
"22/08/12","08:30",0.0,28.7,90.0,1002.2,24.8,0.6,1.3,354.3,0.21,26.9,26.2,"08:26:24",1
"22/08/12","08:40",0.0,29.2,88.2,1002.4,26.8,0.6,1.6,5.9,0.16,27.1,26.3,"08:36:16",1
"22/08/12","08:50",0.0,29.7,85.4,1002.2,350.4,0.5,1.7,335.7,0.16,27.0,26.2,"08:42:56",1
"22/08/12","09:00",0.0,30.1,82.3,1002.6,110.9,0.5,1.1,58.3,0.15,26.8,26.3,"08:50:08",1
"22/08/12","09:10",0.0,30.2,80.2,1002.6,113.6,0.2,1.1,126.5,0.11,26.4,26.4,"09:01:12",1
"22/08/12","09:20",0.0,30.2,78.7,1002.6,324.7,0.5,2.0,351.6,0.14,26.1,26.3,"09:18:40",1
"22/08/12","09:30",0.0,30.7,77.2,1002.9,155.2,1.2,2.5,136.5,0.25,26.3,26.2,"09:26:24",1
"22/08/12","09:40",0.0,30.8,75.4,1003.1,156.8,1.2,2.6,221.7,0.27,26.0,26.2,"09:33:52",1
"22/08/12","09:50",0.0,30.9,73.8,1003.1,180.0,1.7,3.4,201.6,0.26,25.7,26.5,"09:40:32",1
"22/08/12","10:00",0.0,31.2,72.8,1003.1,166.4,1.6,3.1,190.0,0.33,25.8,26.4,"09:52:48",1
"22/08/12","10:10",0.0,31.6,70.2,1003.6,171.9,1.6,3.7,158.8,0.33,25.5,26.4,"10:08:32",1
"22/08/12","10:20",0.0,31.5,70.6,1003.6,148.9,1.2,2.7,158.2,0.25,25.5,26.4,"10:13:20",1
"22/08/12","10:30",0.0,31.6,70.2,1003.6,160.4,1.1,2.1,199.8,0.23,25.5,26.5,"10:28:32",1
"22/08/12","10:40",0.0,31.4,68.8,1003.6,205.7,1.5,3.1,219.9,0.21,25.0,26.5,"10:34:32",1
"22/08/12","10:50",0.0,31.5,69.3,1003.1,183.7,1.3,2.9,236.7,0.18,25.2,26.4,"10:46:32",1
"22/08/12","11:00",0.0,31.5,68.9,1003.4,176.3,1.5,4.0,227.1,0.18,25.1,26.5,"10:56:16",1
"22/08/12","11:10",0.0,31.7,68.6,1003.4,216.0,1.2,3.3,217.7,0.20,25.3,26.5,"11:01:04",1
"22/08/12","11:20",0.0,31.7,68.4,1003.6,185.1,1.0,2.5,182.1,0.14,25.2,26.6,"11:15:28",1
"22/08/12","11:30",0.0,31.8,67.5,1003.8,238.6,0.5,1.9,204.5,0.14,25.1,26.7,"11:29:44",1
"22/08/12","11:40",0.0,32.4,67.5,1003.8,128.5,0.5,1.9,143.8,0.20,25.6,26.5,"11:30:48",1
"22/08/12","11:50",0.0,32.5,66.1,1003.6,217.2,1.5,3.3,231.5,0.25,25.4,26.5,"11:44:24",1
"22/08/12","12:00",0.0,32.6,64.4,1003.6,216.4,0.5,2.7,209.7,0.23,25.0,26.7,"11:59:44",1
"22/08/12","12:10",0.0,32.2,65.9,1003.4,233.1,1.2,2.6,223.3,0.16,25.1,26.7,"12:07:24",1
"22/08/12","12:20",0.0,31.9,67.4,1003.4,221.6,1.5,3.4,226.3,0.16,25.1,26.7,"12:17:28",1
"22/08/12","12:30",0.0,32.0,69.2,1002.6,226.7,1.5,3.9,215.6,0.21,25.7,26.6,"12:28:24",1
"22/08/12","12:40",0.0,31.8,71.7,1002.9,266.1,1.3,3.2,247.4,0.33,26.1,26.7,"12:32:00",1
"22/08/12","12:50",0.0,32.2,69.6,1003.1,273.3,1.1,2.6,222.2,0.30,26.0,26.7,"12:40:02",1
"22/08/12","13:00",0.0,32.6,67.8,1003.1,241.2,1.2,3.2,217.3,0.32,25.9,26.8,"12:50:16",1
"22/08/12","13:10",0.0,32.9,65.8,1003.4,234.7,1.2,3.7,213.3,0.36,25.7,26.8,"13:09:20",1
"22/08/12","13:20",0.0,33.7,64.0,1003.1,218.6,1.2,3.4,236.0,0.50,26.0,26.9,"13:16:40",1
"22/08/12","13:30",0.0,34.2,60.5,1003.1,176.9,1.7,4.1,214.0,0.56,25.5,26.8,"13:28:32",1
"22/08/12","13:40",0.0,34.8,59.2,1003.8,159.9,1.1,2.7,149.2,0.47,25.7,26.9,"13:34:48",1
"22/08/12","13:50",0.0,34.2,59.3,1002.9,208.5,1.7,4.0,224.2,0.40,25.2,27.0,"13:44:00",1
"22/08/12","14:00",0.0,34.7,59.3,1002.9,220.0,1.2,3.5,223.3,0.43,25.6,26.9,"13:53:20",1
"22/08/12","14:10",0.0,34.0,60.1,1003.1,218.8,1.5,3.4,219.2,0.24,25.2,27.0,"14:00:40",1
"22/08/12","14:20",0.0,34.4,61.2,1002.9,201.2,1.1,2.7,240.5,0.34,25.9,27.1,"14:15:20",1
"22/08/12","14:30",0.0,35.7,57.2,1003.1,206.2,1.0,3.3,211.9,0.60,26.0,27.1,"14:22:00",1
"22/08/12","14:40",0.0,35.7,56.3,1003.1,184.7,1.6,3.7,180.9,0.50,25.7,27.4,"14:32:08",1
"22/08/12","14:50",0.0,35.2,56.6,1003.1,119.2,1.0,3.2,133.6,0.29,25.3,27.2,"14:40:32",1
"22/08/12","15:00",0.0,34.0,58.9,1002.6,234.1,1.7,3.5,239.8,0.16,24.9,27.3,"14:51:04",1
"22/08/12","15:10",0.0,34.0,59.5,1001.9,191.1,2.0,3.5,215.9,0.29,25.0,27.5,"15:04:16",1
"22/08/12","15:20",0.0,34.2,58.7,1002.6,188.1,1.7,3.7,222.4,0.30,25.0,27.4,"15:12:40",1
"22/08/12","15:30",0.0,34.0,61.1,1002.4,155.5,1.3,3.7,146.7,0.25,25.5,27.4,"15:28:08",1
"22/08/12","15:40",0.0,34.8,58.2,1002.4,153.5,1.1,3.2,135.9,0.38,25.4,27.4,"15:32:32",1
"22/08/12","15:50",0.0,34.3,58.4,1002.2,175.2,1.2,2.2,186.0,0.17,25.0,27.4,"15:49:36",1
"22/08/12","16:00",0.0,35.1,56.1,1002.2,196.8,1.0,2.4,187.0,0.41,25.1,27.4,"15:50:08",1
"22/08/12","16:10",0.0,35.4,57.4,1002.2,152.8,1.2,3.2,207.6,0.33,25.7,27.4,"16:00:16",1
"22/08/12","16:20",0.0,34.9,57.4,1002.2,130.4,0.8,2.2,124.7,0.20,25.3,27.5,"16:16:08",1
"22/08/12","16:30",0.0,34.4,59.5,1001.9,105.6,0.7,2.4,181.0,0.13,25.4,27.5,"16:20:56",1
"22/08/12","16:40",0.0,33.9,60.9,1001.7,58.0,1.0,2.4,28.4,0.13,25.3,27.4,"16:33:20",1
"22/08/12","16:50",0.0,33.4,63.4,1001.5,51.6,1.1,3.2,26.5,0.10,25.5,27.7,"16:40:48",1
"22/08/12","17:00",0.0,32.8,65.5,1001.2,53.9,1.0,3.3,10.8,0.05,25.5,27.5,"16:59:20",1
"22/08/12","17:10",0.0,32.5,66.5,1001.2,39.6,1.0,2.0,40.9,0.05,25.5,27.5,"17:05:04",1
"22/08/12","17:20",0.0,32.4,67.7,1000.8,35.8,0.8,2.7,40.6,0.04,25.7,27.6,"17:11:04",1
"22/08/12","17:30",0.0,32.1,68.7,1000.5,86.1,0.6,1.6,110.3,0.02,25.7,27.4,"17:23:20",1
"22/08/12","17:40",0.2,31.9,70.3,1000.3,134.6,1.2,3.3,129.1,0.02,25.9,27.6,"17:34:56",1
"22/08/12","17:50",0.8,30.7,77.0,999.8,169.1,1.2,2.4,136.6,0.03,26.2,27.5,"17:42:16",1
"22/08/12","18:00",0.6,29.7,80.3,999.6,195.7,1.5,3.5,200.3,0.04,26.0,27.5,"17:54:08",1
"22/08/12","18:10",0.0,29.6,82.2,999.6,225.5,1.6,3.1,218.7,0.07,26.3,27.6,"18:03:28",1
"22/08/12","18:20",1.0,29.4,83.4,999.3,252.0,1.6,3.5,201.3,0.04,26.3,27.5,"18:11:12",1
"22/08/12","18:30",0.2,29.0,84.7,1000.0,353.3,1.5,2.7,334.2,0.01,26.2,27.5,"18:22:00",1
"22/08/12","18:40",0.0,28.8,85.8,1000.3,352.5,0.8,2.4,338.3,0.01,26.2,27.5,"18:30:16",1
"22/08/12","18:50",0.2,28.7,86.6,1000.3,326.6,0.6,1.2,344.0,0.00,26.3,27.5,"18:43:36",1
"22/08/12","19:00",0.0,28.5,87.3,1000.5,246.6,1.0,2.2,232.6,0.00,26.2,27.4,"18:58:48",1
"22/08/12","19:10",0.2,28.5,87.9,1000.0,292.1,0.8,1.6,227.5,0.00,26.3,27.4,"19:00:08",1
"22/08/12","19:20",0.0,28.3,88.4,999.8,312.8,0.7,1.7,311.2,0.00,26.2,27.4,"19:11:36",1
"22/08/12","19:30",0.0,28.1,88.9,1000.3,335.5,0.7,1.9,345.1,0.00,26.1,27.2,"19:27:52",1
"22/08/12","19:40",0.0,27.7,89.3,1000.3,302.4,0.3,0.9,241.1,0.00,25.8,27.4,"19:32:24",1
"22/08/12","19:50",0.0,27.6,89.7,1000.8,338.8,0.7,1.3,349.7,0.00,25.8,27.2,"19:47:04",1
"22/08/12","20:00",0.0,27.4,90.1,1000.5,309.0,0.6,1.6,336.9,0.00,25.7,27.3,"19:59:52",1
"22/08/12","20:10",0.0,27.4,90.4,1000.8,322.8,0.7,1.9,310.0,0.00,25.7,27.3,"20:01:04",1
"22/08/12","20:20",0.0,27.4,90.6,1000.8,346.7,0.5,1.3,354.0,0.00,25.8,27.3,"20:19:52",1
"22/08/12","20:30",0.0,27.2,90.8,1000.8,318.2,0.7,1.3,336.6,0.00,25.6,27.2,"20:20:32",1
"22/08/12","20:40",0.0,27.2,91.1,1001.2,318.6,0.7,1.2,289.7,0.00,25.7,27.2,"20:30:48",1
"22/08/12","20:50",0.0,27.0,91.3,1001.2,324.7,1.0,1.7,340.8,0.00,25.5,27.5,"20:45:04",1
"22/08/12","21:00",0.0,26.8,91.6,1001.5,309.7,0.7,1.0,345.1,0.00,25.4,27.3,"20:50:24",1
"22/08/12","21:10",0.0,26.5,91.8,1001.5,299.8,0.5,1.0,261.5,0.00,25.1,27.3,"21:09:52",1
"22/08/12","21:20",0.0,26.5,91.9,1001.9,306.6,0.6,1.0,261.6,0.00,25.1,27.2,"21:10:08",1
"22/08/12","21:30",0.0,26.4,92.1,1001.5,331.0,0.7,1.1,276.8,0.00,25.1,27.2,"21:23:44",1
"22/08/12","21:40",0.0,26.2,92.2,1001.5,316.9,0.7,1.4,337.0,0.00,24.9,27.2,"21:38:24",1
"22/08/12","21:50",0.0,26.2,92.4,1001.7,324.7,0.7,1.4,344.3,0.00,24.9,27.3,"21:48:40",1
"22/08/12","22:00",0.0,26.2,92.5,1002.2,331.9,0.7,1.3,326.6,0.00,24.9,27.0,"21:52:56",1
"22/08/12","22:10",0.0,25.9,92.6,1001.7,325.4,1.1,1.6,337.3,0.00,24.6,27.1,"22:04:24",1
"22/08/12","22:20",0.0,25.8,92.8,1001.2,327.8,1.3,2.1,345.3,0.00,24.6,27.0,"22:12:48",1
"22/08/12","22:30",0.0,25.8,92.8,1001.5,319.6,1.0,1.7,343.5,0.00,24.6,27.0,"22:28:40",1
"22/08/12","22:40",0.0,25.7,92.9,1001.5,307.3,1.0,2.0,336.8,0.00,24.5,27.1,"22:30:08",1
"22/08/12","22:50",0.0,25.6,93.0,1001.7,318.1,1.0,1.9,320.8,0.00,24.4,26.9,"22:47:04",1
"22/08/12","23:00",0.0,25.6,93.1,1001.5,330.2,1.1,1.6,335.9,0.00,24.4,26.9,"22:57:52",1
"22/08/12","23:10",0.0,25.5,93.2,1001.7,296.8,0.7,1.3,339.9,0.00,24.4,27.0,"23:00:08",1
"22/08/12","23:20",0.0,25.5,93.3,1001.9,279.8,0.8,1.6,266.5,0.00,24.4,26.8,"23:15:12",1
"22/08/12","23:30",0.0,25.5,93.4,1001.7,317.3,0.6,1.2,305.7,0.00,24.4,26.9,"23:21:28",1
"22/08/12","23:40",0.0,25.5,93.4,1001.5,299.0,0.8,1.3,306.7,0.00,24.4,26.9,"23:38:24",1
"22/08/12","23:50",0.0,25.4,93.5,1001.9,294.7,1.0,1.6,313.9,0.00,24.3,26.9,"23:48:24",1
"22/08/12","24:00",0.0,25.4,93.6,1001.9,313.2,0.6,1.2,340.2,0.00,24.3,26.8,"23:59:36",1
